SL-16 DEB, 22611

Orbit data source: Space-Track

SL-16 DEB, 22611 is space debris in LEO originally from a launch on Fri, 26 Mar 1993 UTC launched from the Tyuratam Missile And Space Complex (TTMTR). Debris objects in space refer to the collection of defunct objects orbiting the Earth. Examples of debris include non-operational satellites, rocket bodies, and fragments generated from explosions, collisions, or faulty payload assembly.

Loading next visibility...
Identifier
22611, 1993-016V
Orbit
LEO
Country
Flag of CISCIS
Related business
Manufacturer
Unknown
Mission
Spacecraft
Bus & Motor
Unknown
Mass
Unknown
Launch date (UTC)
1993-03-26 (33 years ago)
Launch vehicle
Unknown
Launch site
Tyuratam Missile And Space Complex (TTMTR)
Object type
Payload
Rocket body
Debris
Shape & HBR
Unknown shape, 0.2 m
Radar Cross Section
Medium (>0.1 m² and <1 m²)

Expand to show TLE details & history
Last TLE update: 13 hours ago

TLE from 13 hours ago
0 SL-16 DEB
1 22611U 93016V   26255.12362738  .00000114  00000-0  13984-3 0  9997
2 22611  70.9892 292.3296 0172016 307.1555  82.3658 13.78784303681422
Epoch: 2026-09-12T02:58Z
TLE epoch observation values (Epoch: 2026-09-12T02:58:01.405Z)
Latitude
29.64395°
Longitude
-92.06559°
Altitude
956.706 km
Speed
7.384 km/s
True Right ascension
20h 14m 18s
True Declination
29° 30' 01"
Sunlit
Object was in full shadow at epoch
Visualization orbit readout
Latitude
Unknown
Longitude
Unknown
Altitude
Unknown
Speed
Unknown
Apparent Right ascension
Unknown
Apparent Declination
Unknown
Sunlit
N/A
Visualization observer readout
Local Sidereal Time
08:48:16
Azimuth
Unknown
Elevation
Unknown
Doppler factor
Unknown
Orbital elements
Apogee altitude
1,092.496 km
Perigee altitude
839.829 km
Semi-major axis
7,344.3 km
Eccentricity
0.0172
Inclination
70.9892°
RAAN
292.3296°
Arg. of periapsis
307.1555°
True anomaly
84.3247°
Mean anomaly
82.3658°
Eccentric anomaly
83.34474°
Mean motion
3.4484 °/min
Orbital period
104.4 mins
BSTAR
0.00013984
Loading maneuver chart data...
Computing Atmospheric mass density...
Loading historical data...
Loading historical data...
Loading historical data...
Loading historical data...
Loading historical data...
Loading historical data...
Loading historical data...

Documentation

Showing up to 5 results
|